Lapse_Rate
7.0 6.9 6.8 6.6 6.6 6.7 6.6 6.4 6.3 6.2 6.1 5.9 5.7 5.5 5.4 5.0 4.8 4.7 4.5 4.6 4.8 4.9 5.0 5.1 5.0 4.7 4.6 4.5 4.4 4.5 4.6 4.7 4.8 5.0 5.0 5.0 5.1 5.3 5.4 5.4 5.4 5.4 5.4
6.8 7.1 7.0 6.7 6.7 6.7 6.7 6.5 6.4 6.2 6.1 5.9 5.7 5.3 5.2 5.0 4.7 4.6 4.6 4.6 4.8 4.8 4.8 4.8 4.7 4.7 4.7 4.6 4.5 4.5 4.5 4.7 4.8 5.0 5.0 5.0 5.1 5.2 5.2 5.3 5.2 5.3 5.1
6.5 6.7 7.1 6.9 6.8 6.8 6.8 6.6 6.4 6.2 6.1 5.9 5.7 5.2 4.9 4.8 4.6 4.5 4.6 4.7 4.7 4.8 4.6 4.5 4.6 4.6 4.5 4.6 4.5 4.6 4.6 4.7 4.8 5.0 5.0 5.0 5.0 5.1 5.2 5.2 5.3 5.2 5.2
6.6 6.4 7.2 7.3 6.9 7.0 6.8 6.8 6.4 6.2 6.1 6.0 5.8 5.3 5.0 4.8 4.7 4.5 4.6 4.7 4.6 4.6 4.4 4.3 4.4 4.5 4.5 4.5 4.5 4.5 4.6 4.7 4.7 4.8 5.0 5.0 5.0 5.1 5.2 5.3 5.4 5.3 5.3
6.6 6.7 7.1 7.1 7.1 7.1 7.1 6.9 6.7 6.2 6.1 6.0 5.8 5.5 5.1 4.8 4.8 4.6 4.6 4.6 4.6 4.5 4.3 4.3 4.3 4.4 4.4 4.4 4.4 4.3 4.5 4.6 4.7 4.9 5.0 5.0 5.0 5.1 5.2 5.3 5.3 5.4 5.5
6.4 6.5 6.8 7.2 7.0 7.1 7.2 7.0 6.9 6.4 6.0 5.9 5.8 5.6 5.3 5.0 4.9 4.8 4.7 4.6 4.5 4.4 4.4 4.3 4.3 4.2 4.2 4.2 4.2 4.3 4.4 4.6 4.5 4.8 4.9 5.0 5.0 5.0 5.1 5.2 5.3 5.4 5.5
6.0 6.0 6.2 6.5 6.9 7.0 7.1 7.0 6.9 6.8 6.2 5.8 5.8 5.6 5.2 5.0 5.0 4.9 4.7 4.7 4.6 4.4 4.4 4.4 4.2 4.1 4.1 4.1 4.2 4.2 4.3 4.4 4.5 4.7 4.7 4.9 5.0 5.1 5.1 5.2 5.2 5.3 5.4
5.9 6.0 6.0 6.1 6.3 6.7 6.8 7.0 6.8 6.8 6.5 6.1 5.7 5.6 5.0 4.9 4.9 4.9 4.9 4.9 4.7 4.5 4.4 4.4 4.2 4.1 4.1 4.0 4.1 4.2 4.3 4.4 4.4 4.6 4.7 4.7 4.9 5.0 5.0 5.1 5.2 5.3 5.4
5.7 5.7 5.8 6.0 6.2 6.2 6.4 6.5 6.7 6.8 6.6 6.3 5.8 5.2 5.1 4.7 4.9 4.9 4.9 4.9 4.8 4.6 4.5 4.4 4.2 4.1 4.0 4.0 4.1 4.2 4.3 4.4 4.4 4.6 4.7 4.7 4.8 4.8 4.9 5.0 5.2 5.3 5.4
5.6 5.6 5.6 5.5 5.7 6.2 6.4 6.2 6.5 6.8 6.7 6.3 5.5 5.2 5.0 4.7 4.8 4.9 5.1 5.0 4.8 4.7 4.4 4.3 4.1 4.1 4.0 4.0 4.0 4.2 4.2 4.4 4.5 4.5 4.7 4.7 4.8 4.8 4.9 5.0 5.2 5.3 5.4
5.0 5.5 5.3 5.7 5.4 5.5 5.9 6.3 6.0 6.6 6.8 6.2 5.4 5.1 5.0 4.9 4.9 4.9 5.2 5.0 4.8 4.7 4.5 4.3 4.1 4.1 4.1 4.1 4.0 4.1 4.2 4.4 4.7 4.6 4.8 4.9 4.9 5.0 5.1 5.1 5.2 5.3 5.4
5.2 4.9 5.0 5.1 5.7 5.3 5.8 6.0 6.1 6.4 6.7 6.2 5.5 5.5 5.1 5.0 5.1 5.2 5.1 4.9 4.9 4.7 4.5 4.3 4.2 4.2 4.2 4.1 4.1 4.3 4.3 4.5 4.7 4.7 4.8 4.9 5.0 5.1 5.1 5.2 5.3 5.4 5.5
4.8 4.9 5.0 5.3 5.5 5.3 5.2 5.9 6.2 6.2 6.3 6.0 5.8 5.6 5.3 5.2 4.9 5.3 5.3 5.1 5.0 4.7 4.5 4.5 4.3 4.3 4.2 4.2 4.2 4.3 4.4 4.6 4.7 4.8 5.0 5.0 5.1 5.1 5.2 5.2 5.4 5.5 5.6
4.7 4.7 4.8 5.0 5.4 5.1 5.3 5.1 6.3 5.8 6.0 5.9 6.0 5.7 5.4 5.3 5.3 5.6 5.3 5.2 4.9 4.7 4.5 4.5 4.4 4.4 4.4 4.4 4.4 4.5 4.6 4.7 4.8 4.7 5.0 5.1 5.1 5.3 5.3 5.4 5.4 5.6 5.7
4.4 4.7 4.7 4.8 4.8 4.8 4.8 5.2 5.6 6.6 6.0 5.7 6.1 5.8 5.8 5.8 5.3 5.5 5.3 5.1 4.9 4.8 4.7 4.6 4.6 4.5 4.5 4.6 4.7 4.8 4.8 4.9 4.9 5.0 4.9 5.2 5.4 5.4 5.5 5.6 5.6 5.7 5.8
4.3 4.5 4.8 4.6 4.5 5.0 4.2 4.1 5.4 5.7 5.7 5.6 5.9 5.8 6.0 5.2 5.3 5.4 5.5 5.3 5.1 5.0 4.8 4.8 4.7 4.7 4.7 4.7 4.8 4.9 5.0 5.2 5.2 5.3 5.3 5.4 5.5 5.6 5.7 5.7 5.7 5.8 5.9
4.4 4.4 4.4 4.4 4.6 4.8 4.8 4.8 4.9 5.0 5.5 5.5 5.5 5.6 5.7 5.5 5.6 5.7 5.6 5.5 5.3 5.1 5.0 4.9 4.9 4.9 4.9 4.9 5.0 5.1 5.2 5.3 5.3 5.3 5.4 5.5 5.8 5.8 5.8 5.9 5.9 6.0 6.1
4.4 3.8 4.3 4.2 4.2 4.7 5.0 5.4 5.6 4.8 4.9 4.8 5.7 5.3 5.6 5.5 5.7 5.8 5.7 5.6 5.4 5.2 5.2 5.1 5.0 5.0 5.0 5.1 5.2 5.3 5.6 5.7 5.8 5.6 5.5 5.6 5.8 6.1 5.9 5.9 5.8 5.9 6.0
4.5 4.5 4.2 4.2 4.5 5.0 5.3 5.3 5.2 5.0 4.8 4.6 5.2 5.7 5.7 5.8 5.7 5.8 5.5 5.5 5.3 5.3 5.3 5.2 5.1 5.2 5.3 5.4 5.8 5.7 5.6 5.8 6.0 5.8 5.4 5.6 6.0 6.2 5.9 6.1 6.1 6.1 5.9
4.5 4.7 5.0 5.0 4.5 5.0 5.8 5.8 5.0 5.0 4.8 4.6 4.7 5.6 5.9 5.8 5.8 5.7 5.5 5.4 5.4 5.3 5.3 5.3 5.3 5.5 5.6 5.7 6.4 6.3 6.0 5.7 5.9 5.8 5.7 6.0 5.8 5.9 5.8 5.9 5.7 5.6 5.7
4.8 5.2 5.6 5.7 5.6 5.5 5.7 5.5 5.3 5.3 5.0 4.4 4.2 5.2 5.4 5.6 5.5 5.6 5.6 5.5 5.6 5.6 5.5 5.5 5.6 5.9 6.0 6.0 6.7 6.4 6.1 5.9 5.9 5.9 5.6 5.8 5.8 5.6 5.5 5.8 5.5 5.7 5.7
5.6 5.3 5.5 5.3 5.6 5.3 5.5 5.0 5.0 5.0 4.8 4.8 4.6 4.8 5.0 5.2 5.3 5.6 5.7 5.7 5.6 5.6 5.7 5.8 6.1 6.4 6.1 6.0 6.2 6.2 6.2 6.1 5.6 5.3 5.4 5.3 5.5 5.1 5.2 5.4 5.7 5.6 5.7
5.3 5.0 5.2 5.5 5.4 5.3 5.1 4.9 5.2 4.6 5.0 4.8 4.5 4.4 4.9 5.1 5.2 5.3 5.4 5.8 5.8 5.7 6.0 5.8 5.8 5.8 5.6 5.7 6.1 6.0 6.0 6.2 5.7 5.8 5.4 5.3 5.2 5.3 5.1 5.0 5.1 5.4 5.3
4.7 4.7 5.1 5.5 5.3 5.0 5.5 5.3 5.0 4.7 4.8 4.7 4.6 4.8 4.8 4.4 4.9 5.5 5.4 5.5 5.5 5.5 5.4 5.8 5.3 5.1 5.2 5.2 5.3 5.5 6.1 6.0 5.5 5.8 5.5 5.6 5.1 5.2 5.4 5.3 5.6 5.5 5.7
4.9 5.0 5.1 5.4 5.0 5.2 5.0 5.2 5.0 4.7 4.6 4.7 4.8 4.7 5.2 4.9 4.7 4.8 4.9 4.9 4.9 4.9 5.0 5.2 5.6 5.9 5.5 5.4 5.7 6.0 6.1 6.0 5.6 5.9 5.4 5.4 5.4 5.2 5.4 5.7 5.7 5.5 5.5
4.9 5.0 5.4 5.1 5.2 5.0 4.6 4.7 4.3 4.6 4.6 4.6 4.5 4.4 4.4 4.5 4.7 4.8 4.8 5.0 5.3 5.2 5.4 5.9 5.9 6.3 5.5 4.8 5.2 5.7 6.0 6.1 6.1 5.6 5.7 5.7 5.7 5.9 6.1 5.7 5.8 5.5 5.3
Wind_Speed
13 18 25 25 21 19 20 18 20 20 20 20 18 18 18 18 18 18 18 18 16 15 18 20 22 22 20 19 18 18 18 18 19 19 17 18 20 19 17 16 14 12 14
15 23 25 24 24 20 18 17 18 20 20 20 19 19 19 18 18 18 18 18 15 19 18 21 21 20 19 18 16 16 16 15 17 18 19 17 17 19 17 14 13 18 16
16 19 21 23 22 20 18 17 16 21 20 20 20 20 20 19 18 19 17 17 19 19 18 20 19 17 17 15 14 14 13 11 9 8 16 16 15 16 16 18 19 19 19
16 19 20 21 20 19 18 17 17 18 21 21 22 21 21 21 18 18 19 20 19 19 18 19 16 16 15 14 12 13 11 8 7 9 13 14 12 14 15 16 16 15 17
15 19 18 22 21 18 18 17 17 16 22 21 22 22 22 21 21 19 20 20 21 19 20 18 15 15 14 12 11 10 9 11 20 19 18 15 11 13 13 13 14 14 15
14 19 22 21 20 18 17 17 17 17 20 21 21 22 22 22 21 20 21 20 20 16 19 16 14 13 12 11 9 8 9 10 16 19 17 14 12 13 13 13 13 13 13
13 15 20 23 20 18 17 16 16 17 18 21 22 22 23 23 21 18 23 22 19 17 16 15 13 12 11 9 7 7 9 14 17 17 15 12 11 12 12 12 12 12 12
12 13 16 21 20 18 17 18 16 17 19 20 21 23 24 24 21 19 21 24 18 20 18 16 14 12 10 8 6 6 7 12 11 16 14 10 10 11 11 11 11 11 12
13 10 12 14 18 17 14 14 14 16 18 20 21 23 24 23 21 19 21 21 17 19 18 16 14 12 10 7 4 3 4 6 11 14 12 10 8 9 9 9 10 10 10
10 8 6 10 13 12 14 15 13 14 18 20 21 24 23 25 23 23 21 21 18 16 16 14 12 12 9 7 3 1 2 4 7 15 13 11 9 7 7 7 7 8 7
9 8 5 7 7 10 12 13 11 13 19 20 23 24 25 18 20 23 21 22 19 17 15 14 12 11 9 7 5 2 2 1 3 11 11 12 9 7 6 5 4 4 4
10 7 5 6 5 10 7 10 11 11 15 17 17 18 15 17 16 15 20 22 19 16 15 14 12 11 9 7 6 6 5 4 2 15 12 11 9 7 5 5 4 3 2
12 8 7 8 4 6 7 3 8 8 10 14 19 14 16 15 15 12 13 14 15 16 12 13 11 10 9 8 8 8 7 6 7 13 14 12 10 7 6 6 6 5 5
13 13 12 10 9 6 6 5 3 5 8 8 16 13 13 12 9 10 11 11 12 14 11 12 11 12 11 12 13 11 10 9 6 12 15 13 12 10 8 7 7 8 8
12 10 10 10 9 10 9 3 2 4 9 12 14 10 16 12 9 11 10 11 12 15 13 10 9 8 8 10 11 9 9 9 8 14 15 15 14 12 11 10 10 9 9
2 8 9 9 7 8 9 11 5 9 14 15 16 18 19 17 13 10 9 10 11 14 14 12 8 6 5 7 6 9 7 8 10 13 16 17 18 15 14 11 10 9 8
6 6 8 10 11 12 11 11 9 7 14 12 18 24 22 21 17 14 8 8 12 15 16 13 9 6 3 3 4 4 6 8 6 9 14 13 16 17 14 11 10 9 9
5 8 8 9 12 11 10 7 5 12 16 14 15 17 23 21 18 14 9 9 15 14 11 5 4 4 4 4 3 3 2 4 8 7 6 13 16 14 14 13 11 9 9
7 8 9 11 13 13 9 10 12 12 9 10 13 14 19 18 17 12 5 7 13 6 4 5 3 4 3 3 3 3 4 3 5 5 4 7 9 12 12 9 9 4 8
5 6 9 9 12 11 8 8 8 8 9 10 7 11 16 15 15 12 7 7 10 6 5 4 4 3 3 4 3 4 4 4 4 3 1 4 12 13 11 7 3 2 4
4 2 9 10 8 7 7 9 7 9 7 13 8 14 15 14 16 11 4 5 7 7 6 5 4 5 4 3 3 1 1 2 4 1 2 5 6 8 8 7 5 5 6
7 8 11 9 8 7 7 6 8 6 3 9 4 9 14 16 16 10 6 5 6 5 6 5 4 2 1 3 3 2 1 2 2 3 1 4 5 5 6 7 6 7 7
11 15 15 16 15 11 13 8 9 6 3 4 4 2 3 10 11 10 7 5 5 4 4 3 1 3 3 1 3 3 2 5 2 2 2 3 4 3 5 6 7 7 5
11 8 12 16 13 14 15 12 16 10 8 3 3 3 5 7 5 8 7 6 6 4 5 6 4 4 4 4 2 2 1 2 2 2 1 2 2 3 4 4 6 6 7
6 8 7 7 10 6 12 13 12 11 6 4 3 5 5 5 4 5 4 3 4 4 4 5 4 6 4 3 1 2 1 2 2 1 2 3 1 1 2 4 5 6 8
4 12 10 8 9 8 11 12 11 9 6 5 7 4 3 2 3 3 5 4 4 5 5 4 4 5 4 4 2 4 3 3 4 3 2 2 3 2 0 2 3 6 7
Wind_Direction
158 157 155 150 150 147 145 146 151 149 147 143 140 136 133 132 132 128 130 133 138 131 120 110 112 105 103 97 95 96 91 92 90 86 71 66 69 78 73 74 72 65 71
151 155 155 151 149 151 150 148 145 156 154 149 148 145 138 138 138 138 140 145 137 121 115 113 106 107 106 105 105 105 99 98 98 87 79 68 70 76 72 78 71 65 86
146 152 151 151 148 149 152 150 149 155 157 157 153 148 145 143 145 147 139 131 128 118 117 111 112 110 109 109 112 111 104 102 108 76 91 77 73 73 70 65 72 66 71
144 152 152 152 148 150 152 154 156 159 159 159 156 152 149 148 145 136 143 131 122 122 112 111 114 111 111 113 113 107 95 77 78 113 97 80 74 75 75 67 69 68 66
146 153 156 152 151 155 156 157 160 165 161 163 161 156 150 150 148 145 135 131 123 123 117 116 116 113 112 113 110 96 78 66 96 98 94 89 82 80 77 75 70 68 67
153 152 155 153 153 156 158 161 163 171 168 166 165 158 153 151 151 151 139 126 124 131 111 116 113 113 112 110 102 84 53 41 103 98 93 89 88 89 84 79 74 71 71
154 149 156 154 154 157 158 161 166 170 174 171 169 161 159 153 153 149 138 132 136 135 124 124 122 119 115 110 100 68 47 62 112 100 97 92 92 91 88 85 81 77 72
133 143 155 155 154 158 163 161 168 167 171 174 172 166 161 152 152 154 150 130 149 148 143 137 131 127 123 117 101 79 51 60 115 112 108 98 97 94 89 86 81 77 73
131 133 146 156 153 158 159 154 163 171 171 176 176 169 160 151 155 168 152 141 151 136 142 142 139 135 132 125 109 72 55 52 125 119 118 115 108 101 96 90 83 77 73
72 77 114 145 143 149 152 159 161 171 172 176 172 161 160 150 162 159 158 152 149 135 132 133 141 141 140 141 151 157 51 31 90 137 136 132 124 110 100 90 84 81 78
92 80 78 91 91 152 157 156 159 172 179 171 156 157 154 155 161 151 161 159 148 135 135 144 145 144 148 157 169 206 303 342 19 154 149 143 139 132 124 119 108 102 104
133 138 146 110 106 72 156 142 135 129 135 146 148 151 153 152 161 149 158 159 150 144 150 153 156 162 167 181 207 215 232 246 136 160 156 156 157 162 166 165 166 170 187
158 154 176 142 151 109 76 99 132 128 140 146 151 157 159 146 158 152 147 153 148 158 163 163 170 181 191 196 219 230 220 245 168 160 166 169 170 184 200 211 215 221 227
171 177 171 167 162 135 108 86 343 151 157 159 163 156 161 154 154 166 164 156 154 173 177 182 189 200 202 212 233 218 229 218 165 179 176 178 185 191 208 222 235 243 248
161 180 190 175 175 169 140 126 126 228 175 178 172 177 174 167 164 167 159 161 170 184 191 196 198 200 217 220 201 207 201 216 199 179 187 189 192 199 208 220 231 243 258
268 164 171 177 191 176 170 152 130 235 207 185 185 178 195 174 164 173 171 178 188 190 198 195 200 201 204 199 228 223 211 220 243 190 190 196 198 201 215 222 238 251 268
204 175 176 181 187 191 186 161 159 160 241 188 185 189 181 169 174 172 175 183 192 193 192 192 202 188 170 200 217 221 232 228 239 205 191 196 202 210 216 227 240 250 264
163 174 194 197 193 190 183 189 175 192 221 194 187 173 173 174 168 173 176 184 183 181 179 175 162 171 172 176 174 230 244 237 245 245 209 194 201 204 212 225 237 250 269
179 171 201 205 188 184 170 158 159 169 197 187 164 163 164 166 166 161 169 176 174 171 166 176 172 163 175 186 200 214 247 249 243 234 229 199 191 189 183 208 211 265 308
163 177 201 194 185 179 159 152 121 190 188 164 167 165 161 167 168 166 171 181 174 169 173 173 169 183 168 189 200 217 219 224 207 209 243 140 147 158 161 160 144 29 11
164 59 195 181 192 174 176 145 151 192 187 196 173 167 165 169 173 173 176 173 170 169 181 182 175 181 208 177 105 20 302 255 288 300 202 160 164 159 146 138 137 104 57
170 191 255 203 207 200 183 167 137 143 170 218 193 176 171 170 175 173 169 171 164 138 149 165 168 126 183 181 143 125 204 309 267 270 177 208 156 153 113 141 145 127 105
183 193 199 214 198 207 187 146 128 142 179 173 202 193 170 174 162 154 152 144 140 131 169 187 181 207 182 282 235 170 163 207 154 155 172 222 170 132 135 153 134 127 118
189 192 221 213 181 198 182 153 154 169 168 187 159 154 85 104 132 153 160 174 168 166 183 188 170 170 173 204 233 227 109 157 163 196 175 190 198 164 153 127 126 121 109
169 189 183 94 124 125 123 130 139 150 143 155 111 100 94 68 62 47 68 146 183 201 215 184 174 175 184 183 182 161 140 45 33 125 203 225 334 323 179 167 133 120 119
289 201 151 135 108 100 98 93 106 118 113 129 121 118 116 137 205 202 236 199 204 222 205 191 199 198 182 164 217 217 208 157 174 173 228 226 202 279 218 136 157 142 131